Location: Newark
(49.3000°N, 9.4667°E)
Time: 09:33:42
(UTC+00:00)

Vanguard 2 Rocket - Visible Passes

Search period start: 23 May 2019 00:00
Search period end: 02 June 2019 00:00
Orbit: 555 x 3325 km, 32.9° (Epoch: 22 May)

Date Brightness Start Highest point End Pass type
(mag) Time Alt. Az. Time Alt. Az. Time Alt. Az.
24 May 10.8 02:12:43 10° SSE 02:20:03 13° SE 02:26:40 10° ESE visible
26 May 10.6 02:21:04 10° S 02:33:22 20° SSE 02:43:49 10° ESE visible
27 May 10.7 01:23:19 10° SSE 01:32:46 15° SE 01:41:27 10° ESE visible
28 May 10.8 00:31:46 10° SE 00:32:21 10° SE 00:32:56 10° SE visible
28 May 10.4 02:31:41 10° SSW 02:46:40 27° SSE 02:59:09 10° ESE visible
29 May 10.5 01:32:32 10° S 01:45:52 22° SE 01:57:55 10° ESE visible
30 May 10.6 00:35:12 10° SSE 00:45:15 17° SE 00:55:18 10° ESE visible
30 May 10.2 02:43:20 10° SSW 03:00:00 34° SSE 03:13:47 10° ESE visible
30 May 10.7 23:41:03 10° SE 23:44:54 11° SE 23:48:45 10° ESE visible
31 May 10.3 01:44:10 11° SSW 01:58:59 29° SSE 02:13:00 10° E visible
01 Jun 10.4 00:47:19 14° S 00:58:09 24° SE 01:11:21 10° E visible
